Location: Ca�n Batista
(41.4099°N, 1.7752°E)
Time: 14:59:39
(UTC+00:00)

YAOGAN 1 - Pass Details

Date: 03 March 2021
Orbit: 618 x 620 km, 97.9° (Epoch: 22 April)

Event Time Altitude Azimuth Distance (km) Brightness Sun altitude
Rises 19:12:22 0° 187° (S) 2,881 6.0 -17.0°
Reaches altitude 10° 19:14:42 10° 196° (SSW) 1,980 5.3 -17.4°
Maximum altitude 19:18:39 35° 262° (W) 1,003 4.2 -18.1°
Drops below altitude 10° 19:22:39 10° 329° (NNW) 1,996 5.7 -18.9°
Sets 19:25:00 0° 339° (NNW) 2,907 6.4 -19.3°
